RA44704 URFB-UGTB

Flight info

Callsign RA44704
Flight time N/A
Altitude 37000
Route ETUNO DCT SOBLO B143 IDLER M747 LAGAS
Aircraft B752/M-SDFGHIRWY/S

Departure

Time N/A
Airport URFB

Arrival

Time 2026-04-27 20:11
Airport Tbilisi International Airport (UGTB)
Time Latitude Longitude Altitude Speed Heading
2026-04-27 18:26 44.69188 33.58854 333 ft 0 kts 341°
2026-04-27 18:30 44.69195 33.58850 333 ft 5 kts 341°
2026-04-27 18:31 44.69252 33.58825 333 ft 10 kts 351°
2026-04-27 18:31 44.69338 33.58799 333 ft 14 kts 340°
2026-04-27 18:31 44.69419 33.58760 333 ft 10 kts 341°
2026-04-27 18:31 44.69482 33.58730 332 ft 7 kts 341°
2026-04-27 18:32 44.69499 33.58671 331 ft 8 kts 253°
2026-04-27 18:32 44.69462 33.58516 327 ft 44 kts 251°
2026-04-27 18:32 44.69247 33.57661 304 ft 140 kts 251°
2026-04-27 18:32 44.68857 33.56089 669 ft 195 kts 253°
2026-04-27 18:33 44.68402 33.54175 1655 ft 227 kts 255°
2026-04-27 18:33 44.67890 33.52029 2803 ft 235 kts 252°
2026-04-27 18:33 44.67303 33.49896 3732 ft 243 kts 251°
2026-04-27 18:33 44.66376 33.47939 4774 ft 247 kts 223°
2026-04-27 18:34 44.64856 33.46897 5680 ft 255 kts 191°
2026-04-27 18:34 44.63065 33.47087 6526 ft 265 kts 159°
2026-04-27 18:34 44.61529 33.48485 7382 ft 269 kts 136°
2026-04-27 18:34 44.60204 33.50332 8103 ft 281 kts 134°
2026-04-27 18:35 44.58792 33.52370 8599 ft 301 kts 134°
2026-04-27 18:35 44.57309 33.54498 9384 ft 308 kts 135°
2026-04-27 18:35 44.55797 33.56662 10175 ft 315 kts 135°
2026-04-27 18:35 44.54246 33.58877 10808 ft 328 kts 136°
2026-04-27 18:36 44.52595 33.61232 11175 ft 349 kts 136°
2026-04-27 18:36 44.50847 33.63723 11562 ft 368 kts 136°
2026-04-27 18:36 44.49059 33.66272 12236 ft 375 kts 136°
2026-04-27 18:36 44.47220 33.68890 12959 ft 381 kts 136°
2026-04-27 18:37 44.45359 33.71538 13724 ft 385 kts 137°
2026-04-27 18:37 44.43470 33.74221 14431 ft 392 kts 137°
2026-04-27 18:37 44.41553 33.76940 15201 ft 395 kts 137°
2026-04-27 18:37 44.39622 33.79677 15882 ft 400 kts 137°
2026-04-27 18:38 44.37663 33.82452 16601 ft 404 kts 137°
2026-04-27 18:38 44.35684 33.85253 17305 ft 408 kts 137°
2026-04-27 18:38 44.33681 33.88084 18015 ft 413 kts 137°
2026-04-27 18:38 44.31659 33.90940 18764 ft 417 kts 137°
2026-04-27 18:39 44.29621 33.93814 19456 ft 422 kts 138°
2026-04-27 18:39 44.27554 33.96726 20157 ft 425 kts 138°
2026-04-27 18:39 44.25478 33.99648 20814 ft 429 kts 138°
2026-04-27 18:39 44.23368 34.02614 21474 ft 433 kts 138°
2026-04-27 18:40 44.21268 34.05624 22099 ft 439 kts 134°
2026-04-27 18:40 44.19501 34.09100 22743 ft 445 kts 122°
2026-04-27 18:40 44.18005 34.12867 23341 ft 449 kts 121°
2026-04-27 18:40 44.16493 34.16668 23940 ft 452 kts 121°
2026-04-27 18:41 44.14949 34.20549 24529 ft 457 kts 121°
2026-04-27 18:41 44.13410 34.24414 25160 ft 460 kts 121°
2026-04-27 18:41 44.11865 34.28292 25796 ft 464 kts 121°
2026-04-27 18:41 44.10294 34.32231 26450 ft 467 kts 121°
2026-04-27 18:42 44.08727 34.36155 27014 ft 472 kts 121°
2026-04-27 18:42 44.07653 34.38837 27404 ft 474 kts 121°
2026-04-27 18:42 44.05520 34.44164 28179 ft 478 kts 121°
2026-04-27 18:42 44.03906 34.48187 28764 ft 481 kts 121°
2026-04-27 18:43 44.02268 34.52264 29220 ft 486 kts 121°
2026-04-27 18:43 44.00620 34.56362 29800 ft 488 kts 121°
2026-04-27 18:43 43.98962 34.60475 30295 ft 492 kts 121°
2026-04-27 18:43 43.97284 34.64635 30758 ft 495 kts 121°
2026-04-27 18:44 43.95607 34.68787 31236 ft 498 kts 122°
2026-04-27 18:44 43.93916 34.72965 31612 ft 502 kts 122°
2026-04-27 18:44 43.92188 34.77230 32093 ft 504 kts 122°
2026-04-27 18:44 43.90485 34.81425 32451 ft 508 kts 122°
2026-04-27 18:45 43.88757 34.85676 32982 ft 507 kts 122°
2026-04-27 18:45 43.87022 34.89941 33565 ft 505 kts 122°
2026-04-27 18:45 43.85310 34.94142 34062 ft 504 kts 122°
2026-04-27 18:45 43.83596 34.98339 34558 ft 503 kts 122°
2026-04-27 18:46 43.81887 35.02520 35007 ft 502 kts 122°
2026-04-27 18:46 43.80164 35.06731 35409 ft 500 kts 122°
2026-04-27 18:46 43.78461 35.10882 35733 ft 501 kts 122°
2026-04-27 18:46 43.76743 35.15068 36160 ft 498 kts 122°
2026-04-27 18:47 43.75035 35.19218 36497 ft 498 kts 122°
2026-04-27 18:47 43.73327 35.23367 36854 ft 498 kts 122°
2026-04-27 18:47 43.71635 35.27470 37232 ft 497 kts 122°
2026-04-27 18:47 43.69919 35.31626 37654 ft 495 kts 122°
2026-04-27 18:48 43.68217 35.35739 37892 ft 496 kts 122°
2026-04-27 18:48 43.66508 35.39865 38216 ft 495 kts 122°
2026-04-27 18:48 43.64807 35.43966 38525 ft 495 kts 122°
2026-04-27 18:48 43.63105 35.48065 38853 ft 494 kts 122°
2026-04-27 18:49 43.61402 35.52157 39129 ft 493 kts 122°
2026-04-27 18:49 43.59699 35.56247 39259 ft 489 kts 122°
2026-04-27 18:49 43.56307 35.64372 39279 ft 492 kts 122°
2026-04-27 18:50 43.52908 35.72492 39253 ft 491 kts 123°
2026-04-27 18:50 43.49556 35.80477 39274 ft 492 kts 123°
2026-04-27 18:51 43.46129 35.88617 39270 ft 492 kts 123°
2026-04-27 18:51 43.42705 35.96727 39280 ft 491 kts 123°
2026-04-27 18:52 43.39282 36.04811 39273 ft 492 kts 123°
2026-04-27 18:53 43.34116 36.16971 39276 ft 490 kts 123°
2026-04-27 18:53 43.30700 36.24984 39276 ft 491 kts 123°
2026-04-27 18:54 43.27253 36.33046 39277 ft 491 kts 123°
2026-04-27 18:54 43.24430 36.41559 39292 ft 495 kts 107°
2026-04-27 18:55 43.22740 36.50710 39271 ft 496 kts 105°
2026-04-27 18:55 43.21066 36.59799 39276 ft 496 kts 105°
2026-04-27 18:56 43.19379 36.68928 39264 ft 494 kts 106°
2026-04-27 18:56 43.17690 36.78031 39274 ft 495 kts 106°
2026-04-27 18:57 43.15997 36.87111 39276 ft 495 kts 106°
2026-04-27 18:57 43.14293 36.96205 39273 ft 494 kts 106°
2026-04-27 18:58 43.12579 37.05328 39278 ft 495 kts 106°
2026-04-27 18:58 43.10872 37.14386 39280 ft 494 kts 106°
2026-04-27 18:59 43.09155 37.23453 39280 ft 493 kts 106°
2026-04-27 18:59 43.07432 37.32499 39277 ft 493 kts 106°
2026-04-27 19:00 43.05701 37.41548 39279 ft 494 kts 106°
2026-04-27 19:00 43.03965 37.50580 39281 ft 492 kts 106°
2026-04-27 19:01 43.02223 37.59604 39280 ft 491 kts 106°
2026-04-27 19:01 43.00473 37.68629 39272 ft 490 kts 107°
2026-04-27 19:02 42.98728 37.77586 39273 ft 491 kts 107°
2026-04-27 19:02 42.96969 37.86517 39273 ft 489 kts 107°
2026-04-27 19:03 42.95192 37.95463 39276 ft 489 kts 107°
2026-04-27 19:03 42.93413 38.04379 39277 ft 489 kts 107°
2026-04-27 19:04 42.91632 38.13269 39275 ft 490 kts 107°
2026-04-27 19:04 42.89831 38.22212 39273 ft 489 kts 107°
2026-04-27 19:05 42.88042 38.31061 39275 ft 488 kts 107°
2026-04-27 19:05 42.86238 38.39946 39273 ft 488 kts 107°
2026-04-27 19:06 42.84415 38.48880 39275 ft 488 kts 107°
2026-04-27 19:06 42.82608 38.57704 39272 ft 487 kts 107°
2026-04-27 19:07 42.80785 38.66562 39266 ft 485 kts 108°
2026-04-27 19:07 42.78977 38.75311 39268 ft 485 kts 108°
2026-04-27 19:08 42.77140 38.84164 39274 ft 486 kts 108°
2026-04-27 19:08 42.75310 38.92947 39271 ft 486 kts 108°
2026-04-27 19:09 42.73457 39.01799 39280 ft 485 kts 108°
2026-04-27 19:09 42.71611 39.10580 39279 ft 485 kts 108°
2026-04-27 19:10 42.69763 39.19336 39279 ft 483 kts 108°
2026-04-27 19:10 42.67907 39.28082 39273 ft 483 kts 108°
2026-04-27 19:11 42.66034 39.36778 39271 ft 483 kts 108°
2026-04-27 19:11 42.64144 39.45525 39272 ft 482 kts 108°
2026-04-27 19:12 42.62261 39.54225 39266 ft 482 kts 108°
2026-04-27 19:12 42.60381 39.62901 39271 ft 481 kts 108°
2026-04-27 19:13 42.58495 39.71569 39257 ft 480 kts 108°
2026-04-27 19:13 42.56604 39.80224 39268 ft 480 kts 108°
2026-04-27 19:14 42.54710 39.88856 39269 ft 479 kts 109°
2026-04-27 19:14 42.52804 39.97509 39276 ft 478 kts 109°
2026-04-27 19:15 42.50907 40.06088 39276 ft 477 kts 108°
2026-04-27 19:15 42.49002 40.14692 39262 ft 478 kts 108°
2026-04-27 19:16 42.47253 40.23349 39274 ft 478 kts 107°
2026-04-27 19:16 42.45507 40.31977 39270 ft 478 kts 107°
2026-04-27 19:17 42.43751 40.40618 39274 ft 477 kts 107°
2026-04-27 19:17 42.41989 40.49249 39271 ft 477 kts 107°
2026-04-27 19:18 42.40513 40.56449 39281 ft 476 kts 107°
2026-04-27 19:18 42.38452 40.66462 39275 ft 474 kts 108°
2026-04-27 19:19 42.36679 40.75035 39268 ft 474 kts 108°
2026-04-27 19:19 42.34902 40.83593 39257 ft 474 kts 108°
2026-04-27 19:20 42.33118 40.92150 39255 ft 474 kts 108°
2026-04-27 19:20 42.31326 41.00708 39254 ft 474 kts 108°
2026-04-27 19:21 42.29539 41.09209 39247 ft 475 kts 108°
2026-04-27 19:21 42.27733 41.17765 39242 ft 474 kts 108°
2026-04-27 19:22 42.25927 41.26288 39232 ft 473 kts 108°
2026-04-27 19:22 42.24124 41.34760 39243 ft 472 kts 108°
2026-04-27 19:23 42.22309 41.43257 39243 ft 472 kts 108°
2026-04-27 19:23 42.20495 41.51709 39254 ft 473 kts 108°
2026-04-27 19:24 42.18655 41.60252 39243 ft 475 kts 108°
2026-04-27 19:24 42.16871 41.68503 39231 ft 474 kts 109°
2026-04-27 19:25 42.15008 41.76942 39233 ft 473 kts 109°
2026-04-27 19:25 42.13099 41.85440 39247 ft 473 kts 109°
2026-04-27 19:26 42.11200 41.93863 39239 ft 473 kts 109°
2026-04-27 19:26 42.09289 42.02309 39245 ft 471 kts 109°
2026-04-27 19:27 42.07381 42.10706 39225 ft 472 kts 109°
2026-04-27 19:27 42.05470 42.19083 39243 ft 472 kts 109°
2026-04-27 19:28 42.03537 42.27531 39232 ft 473 kts 109°
2026-04-27 19:28 42.01609 42.35924 39230 ft 473 kts 110°
2026-04-27 19:29 41.99662 42.44366 39218 ft 473 kts 110°
2026-04-27 19:29 41.97713 42.52782 39224 ft 473 kts 110°
2026-04-27 19:30 41.95767 42.61156 39197 ft 467 kts 110°
2026-04-27 19:30 41.94819 42.65236 39174 ft 453 kts 111°
2026-04-27 19:30 41.93889 42.69224 39021 ft 441 kts 111°
2026-04-27 19:30 41.92976 42.73122 38467 ft 440 kts 110°
2026-04-27 19:31 41.92059 42.77027 37815 ft 440 kts 110°
2026-04-27 19:31 41.91142 42.80932 37258 ft 438 kts 110°
2026-04-27 19:31 41.90236 42.84793 36650 ft 438 kts 109°
2026-04-27 19:31 41.89328 42.88707 36110 ft 437 kts 109°
2026-04-27 19:32 41.88423 42.92602 35587 ft 436 kts 109°
2026-04-27 19:32 41.87527 42.96453 35029 ft 436 kts 109°
2026-04-27 19:32 41.86630 43.00303 34443 ft 434 kts 108°
2026-04-27 19:32 41.85722 43.04194 33617 ft 436 kts 108°
2026-04-27 19:33 41.84817 43.08061 32779 ft 438 kts 108°
2026-04-27 19:33 41.84214 43.10640 32206 ft 440 kts 108°
2026-04-27 19:33 41.82999 43.15818 31025 ft 443 kts 108°
2026-04-27 19:33 41.82071 43.19762 30206 ft 443 kts 108°
2026-04-27 19:34 41.81150 43.23675 29553 ft 439 kts 108°
2026-04-27 19:34 41.80248 43.27501 28976 ft 433 kts 108°
2026-04-27 19:34 41.79343 43.31332 28319 ft 430 kts 108°
2026-04-27 19:34 41.78442 43.35137 27734 ft 425 kts 108°
2026-04-27 19:35 41.77564 43.38846 27080 ft 422 kts 108°
2026-04-27 19:35 41.76678 43.42574 26485 ft 417 kts 108°
2026-04-27 19:35 41.75801 43.46263 25894 ft 413 kts 108°
2026-04-27 19:35 41.74934 43.49899 25255 ft 410 kts 109°
2026-04-27 19:36 41.74086 43.53453 24732 ft 404 kts 108°
2026-04-27 19:36 41.73235 43.57014 24089 ft 402 kts 108°
2026-04-27 19:36 41.72381 43.60582 23522 ft 398 kts 108°
2026-04-27 19:36 41.71543 43.64078 22924 ft 395 kts 108°
2026-04-27 19:37 41.70711 43.67542 22363 ft 392 kts 109°
2026-04-27 19:37 41.69884 43.70980 21749 ft 390 kts 109°
2026-04-27 19:37 41.69060 43.74401 21171 ft 387 kts 109°
2026-04-27 19:37 41.68230 43.77842 20575 ft 385 kts 109°
2026-04-27 19:38 41.67424 43.81179 20017 ft 381 kts 109°
2026-04-27 19:38 41.66612 43.84535 19494 ft 377 kts 109°
2026-04-27 19:38 41.65810 43.87847 18915 ft 375 kts 109°
2026-04-27 19:38 41.65014 43.91129 18346 ft 372 kts 109°
2026-04-27 19:39 41.64222 43.94390 17817 ft 369 kts 109°
2026-04-27 19:39 41.63433 43.97633 17205 ft 368 kts 109°
2026-04-27 19:39 41.62648 44.00854 16729 ft 363 kts 109°
2026-04-27 19:39 41.61868 44.04053 16148 ft 362 kts 108°
2026-04-27 19:40 41.61092 44.07227 15592 ft 360 kts 108°
2026-04-27 19:40 41.60321 44.10382 15057 ft 357 kts 108°
2026-04-27 19:40 41.59553 44.13518 14519 ft 354 kts 109°
2026-04-27 19:40 41.58789 44.16630 13998 ft 350 kts 108°
2026-04-27 19:41 41.58032 44.19713 13437 ft 349 kts 108°
2026-04-27 19:41 41.57296 44.22778 12886 ft 346 kts 104°
2026-04-27 19:41 41.56836 44.25915 12375 ft 343 kts 99°
2026-04-27 19:41 41.56431 44.29025 11862 ft 341 kts 99°
2026-04-27 19:42 41.56025 44.32103 11325 ft 339 kts 99°
2026-04-27 19:42 41.55622 44.35174 10917 ft 333 kts 98°
2026-04-27 19:42 41.55233 44.38137 10853 ft 314 kts 98°
2026-04-27 19:42 41.54866 44.40921 10545 ft 300 kts 98°
2026-04-27 19:43 41.54510 44.43622 10136 ft 294 kts 98°
2026-04-27 19:43 41.54163 44.46260 10060 ft 278 kts 98°
2026-04-27 19:43 41.53829 44.48815 9842 ft 284 kts 97°
2026-04-27 19:43 41.53485 44.51442 9598 ft 287 kts 97°
2026-04-27 19:44 41.53143 44.54039 9369 ft 281 kts 97°
2026-04-27 19:44 41.52805 44.56609 9151 ft 282 kts 97°
2026-04-27 19:44 41.52463 44.59209 8923 ft 287 kts 98°
2026-04-27 19:44 41.52120 44.61797 8689 ft 284 kts 98°
2026-04-27 19:45 41.51778 44.64377 8472 ft 282 kts 98°
2026-04-27 19:45 41.51436 44.66962 8258 ft 282 kts 98°
2026-04-27 19:45 41.51093 44.69530 8053 ft 282 kts 98°
2026-04-27 19:45 41.50748 44.72101 7821 ft 281 kts 98°
2026-04-27 19:46 41.50405 44.74658 7594 ft 280 kts 98°
2026-04-27 19:46 41.50068 44.77159 7361 ft 275 kts 98°
2026-04-27 19:46 41.49732 44.79647 7147 ft 271 kts 98°
2026-04-27 19:46 41.49398 44.82124 6954 ft 274 kts 98°
2026-04-27 19:47 41.49062 44.84613 6735 ft 272 kts 98°
2026-04-27 19:47 41.48729 44.87075 6498 ft 269 kts 98°
2026-04-27 19:47 41.48396 44.89525 6297 ft 268 kts 98°
2026-04-27 19:47 41.48065 44.91967 6102 ft 269 kts 98°
2026-04-27 19:48 41.47731 44.94421 5864 ft 269 kts 98°
2026-04-27 19:48 41.47401 44.96836 5582 ft 259 kts 98°
2026-04-27 19:48 41.47091 44.99085 5517 ft 233 kts 98°
2026-04-27 19:48 41.46814 45.01104 5489 ft 211 kts 97°
2026-04-27 19:49 41.46560 45.02959 5433 ft 200 kts 97°
2026-04-27 19:49 41.46346 45.04771 5324 ft 201 kts 86°
2026-04-27 19:49 41.46740 45.06503 5269 ft 197 kts 50°
2026-04-27 19:49 41.47646 45.07884 5130 ft 198 kts 46°
2026-04-27 19:50 41.48545 45.09218 4999 ft 188 kts 46°
2026-04-27 19:50 41.49410 45.10481 4846 ft 181 kts 45°
2026-04-27 19:50 41.50272 45.11724 4739 ft 184 kts 44°
2026-04-27 19:50 41.51260 45.12770 4613 ft 179 kts 16°
2026-04-27 19:51 41.52398 45.12731 4579 ft 156 kts 333°
2026-04-27 19:51 41.53207 45.11950 4473 ft 132 kts 321°
2026-04-27 19:51 41.53899 45.11205 4327 ft 126 kts 321°
2026-04-27 19:51 41.54589 45.10477 4290 ft 125 kts 322°
2026-04-27 19:52 41.55248 45.09737 4284 ft 126 kts 319°
2026-04-27 19:52 41.55922 45.08976 4244 ft 127 kts 318°
2026-04-27 19:52 41.56586 45.08169 4122 ft 128 kts 317°
2026-04-27 19:52 41.57232 45.07343 3962 ft 127 kts 316°
2026-04-27 19:53 41.58479 45.05685 3649 ft 127 kts 316°
2026-04-27 19:53 41.59123 45.04871 3491 ft 129 kts 319°
2026-04-27 19:53 41.59794 45.04069 3257 ft 129 kts 318°
2026-04-27 19:54 41.60450 45.03291 2999 ft 124 kts 317°
2026-04-27 19:54 41.61053 45.02527 2764 ft 115 kts 315°
2026-04-27 19:54 41.61618 45.01812 2579 ft 108 kts 314°
2026-04-27 19:54 41.62172 45.01114 2458 ft 106 kts 314°
2026-04-27 19:55 41.62688 45.00461 2355 ft 100 kts 311°
2026-04-27 19:55 41.63194 44.99776 2235 ft 108 kts 313°
2026-04-27 19:55 41.63734 44.99114 2128 ft 103 kts 315°
2026-04-27 19:55 41.64248 44.98495 1952 ft 94 kts 313°
2026-04-27 19:56 41.64702 44.97910 1831 ft 90 kts 309°
2026-04-27 19:56 41.65190 44.97288 1755 ft 100 kts 311°
2026-04-27 19:56 41.65676 44.96684 1561 ft 91 kts 311°
2026-04-27 19:56 41.66158 44.96071 1581 ft 92 kts 314°
2026-04-27 19:57 41.66678 44.95459 2111 ft 102 kts 314°
2026-04-27 19:57 41.67285 44.94725 2608 ft 142 kts 314°
2026-04-27 19:57 41.68156 44.93620 3110 ft 192 kts 316°
2026-04-27 19:57 41.69146 44.92390 4018 ft 210 kts 316°
2026-04-27 19:58 41.70211 44.91076 4006 ft 198 kts 321°
2026-04-27 19:58 41.71400 44.90440 4033 ft 183 kts 359°
2026-04-27 19:58 41.72607 44.91041 4086 ft 195 kts 40°
2026-04-27 19:58 41.73287 44.92616 4074 ft 204 kts 79°
2026-04-27 19:59 41.73096 44.94469 4067 ft 204 kts 119°
2026-04-27 19:59 41.72102 44.95752 4063 ft 196 kts 158°
2026-04-27 19:59 41.70821 44.96302 4045 ft 191 kts 166°
2026-04-27 19:59 41.69544 44.96775 4036 ft 190 kts 166°
2026-04-27 20:00 41.68276 44.97242 4040 ft 191 kts 166°
2026-04-27 20:00 41.66976 44.97717 4041 ft 192 kts 166°
2026-04-27 20:00 41.65688 44.98190 4038 ft 192 kts 166°
2026-04-27 20:00 41.64410 44.98655 4041 ft 192 kts 166°
2026-04-27 20:01 41.63106 44.99122 4041 ft 193 kts 166°
2026-04-27 20:01 41.61812 44.99585 4038 ft 191 kts 166°
2026-04-27 20:01 41.60523 45.00047 4040 ft 191 kts 166°
2026-04-27 20:01 41.59247 45.00503 4034 ft 192 kts 166°
2026-04-27 20:02 41.57948 45.00967 4039 ft 192 kts 166°
2026-04-27 20:02 41.56653 45.01426 4037 ft 191 kts 166°
2026-04-27 20:02 41.55362 45.01867 4037 ft 191 kts 166°
2026-04-27 20:02 41.54087 45.02285 4034 ft 191 kts 166°
2026-04-27 20:03 41.52793 45.02708 4037 ft 191 kts 166°
2026-04-27 20:03 41.51496 45.03146 4040 ft 191 kts 166°
2026-04-27 20:03 41.50200 45.03592 4042 ft 192 kts 166°
2026-04-27 20:03 41.48917 45.04043 4042 ft 192 kts 166°
2026-04-27 20:04 41.47642 45.04592 4036 ft 192 kts 147°
2026-04-27 20:04 41.46806 45.05906 4074 ft 188 kts 104°
2026-04-27 20:04 41.46833 45.07601 4077 ft 184 kts 62°
2026-04-27 20:04 41.47566 45.08988 4064 ft 182 kts 47°
2026-04-27 20:05 41.48407 45.10228 4035 ft 178 kts 47°
2026-04-27 20:05 41.49339 45.11286 4042 ft 177 kts 25°
2026-04-27 20:05 41.50509 45.11857 4054 ft 180 kts 16°
2026-04-27 20:05 41.51734 45.12113 4044 ft 177 kts 355°
2026-04-27 20:06 41.52900 45.11718 4055 ft 176 kts 338°
2026-04-27 20:06 41.54039 45.11061 4045 ft 178 kts 330°
2026-04-27 20:06 41.54991 45.10026 4045 ft 173 kts 317°
2026-04-27 20:06 41.55841 45.08958 4029 ft 159 kts 318°
2026-04-27 20:07 41.56596 45.08026 3967 ft 137 kts 318°
2026-04-27 20:07 41.57248 45.07214 3787 ft 125 kts 319°
2026-04-27 20:07 41.57903 45.06402 3661 ft 131 kts 318°
2026-04-27 20:07 41.58585 45.05566 3558 ft 132 kts 319°
2026-04-27 20:08 41.59261 45.04740 3407 ft 132 kts 318°
2026-04-27 20:08 41.59914 45.03899 3204 ft 128 kts 317°
2026-04-27 20:08 41.60565 45.03093 2967 ft 125 kts 317°
2026-04-27 20:08 41.61186 45.02356 2768 ft 115 kts 316°
2026-04-27 20:09 41.61760 45.01635 2583 ft 109 kts 313°
2026-04-27 20:09 41.62304 45.00928 2408 ft 108 kts 314°
2026-04-27 20:09 41.62850 45.00237 2303 ft 109 kts 314°
2026-04-27 20:09 41.63401 44.99565 2233 ft 107 kts 315°
2026-04-27 20:10 41.63943 44.98866 2132 ft 103 kts 312°
2026-04-27 20:10 41.64438 44.98231 1954 ft 98 kts 312°
2026-04-27 20:10 41.64961 44.97582 1802 ft 100 kts 311°
2026-04-27 20:10 41.65463 44.96943 1692 ft 104 kts 312°
2026-04-27 20:11 41.65956 44.96321 1544 ft 90 kts 311°
2026-04-27 20:11 41.66357 44.95806 1537 ft 57 kts 317°
2026-04-27 20:11 41.66539 44.95585 1543 ft 15 kts 317°
2026-04-27 20:11 41.66597 44.95513 1544 ft 16 kts 315°
2026-04-27 20:12 41.66699 44.95384 1545 ft 18 kts 317°
2026-04-27 20:12 41.66759 44.95309 1545 ft 17 kts 316°
2026-04-27 20:12 41.66842 44.95203 1544 ft 7 kts 316°
2026-04-27 20:12 41.66909 44.95207 1544 ft 12 kts 42°
2026-04-27 20:13 41.66967 44.95281 1546 ft 9 kts 42°
2026-04-27 20:13 41.67014 44.95342 1549 ft 10 kts 43°
2026-04-27 20:13 41.67091 44.95441 1556 ft 19 kts 44°
2026-04-27 20:13 41.67163 44.95534 1565 ft 11 kts 43°
2026-04-27 20:14 41.67220 44.95602 1572 ft 5 kts 40°
2026-04-27 20:14 41.67231 44.95660 1574 ft 10 kts 118°
2026-04-27 20:14 41.67171 44.95753 1576 ft 11 kts 133°
2026-04-27 20:14 41.67113 44.95834 1579 ft 11 kts 134°
2026-04-27 20:15 41.67065 44.95919 1580 ft 11 kts 122°
2026-04-27 20:15 41.67005 44.96016 1577 ft 15 kts 133°
2026-04-27 20:15 41.66920 44.96135 1571 ft 9 kts 133°
2026-04-27 20:15 41.66869 44.96208 1570 ft 9 kts 134°
2026-04-27 20:16 41.66857 44.96224 1570 ft 0 kts 134°
2026-04-27 20:16 41.66850 44.96236 1571 ft 3 kts 122°
2026-04-27 20:16 41.66851 44.96273 1572 ft 5 kts 60°
2026-04-27 20:17 41.66878 44.96312 1573 ft 5 kts 44°
2026-04-27 20:17 41.66891 44.96329 1574 ft 0 kts 42°